Regional Weather Roundup
Issued by NWS Northern Indiana

Home | Current Version | Previous Version | Text Only | Print | Product List | Glossary Off
Versions: 1 2 3 4 5 6 7 8 9 10 11 12 13 14 15 16 17 18 19 20 21 22 23 24 25 26 27 28 29 30 31 32 33 34 35 36 37 38 39 40 41 42 43 44 45 46 47 48 49 50

000
ASUS43 KIWX 051500
RWRIWX

KIWX WEATHER ROUNDUP
NATIONAL WEATHER SERVICE NORTHERN INDIANA
1100 AM EDT TUE MAY 05 2015

NOTE: "FAIR" INDICATES FEW OR NO CLOUDS BELOW 12,000 FEET WITH NO
SIGNIFICANT WEATHER AND/OR OBSTRUCTIONS TO VISIBILITY.

* THESE STATIONS ARE NOT UNDER NWS QUALITY CONTROL. THEY ALSO MAY NOT
  REPORT WEATHER SUCH AS PRECIPITATION OR FOG.

INZ001>027-051600-
NORTHERN INDIANA

CITY           SKY/WX    TMP DP  RH WIND       PRES   REMARKS
GARY*          LGT RAIN  50 N/A N/A CALM      30.21S
VALPARAISO     CLOUDY    64  62  93 SE3       30.21R
SOUTH BEND     CLOUDY    61  59  93 NE6       30.22S FOG
GOSHEN         CLOUDY    65  62  90 S6        30.22R FOG
ANGOLA*        CLOUDY    55  55 100 E9        30.24F
FORT WAYNE     CLOUDY    66  62  87 E6        30.25F FOG
PERU/GRISSOM   MOSUNNY   69  62  78 SE2       30.22S

$$
INZ028>050-051600-
CENTRAL INDIANA

CITY           SKY/WX    TMP DP  RH WIND       PRES   REMARKS
LAFAYETTE      MOSUNNY   70  58  65 SW7       30.20F
KOKOMO*        MOSUNNY   72  63  73 SW6       30.22F
MUNCIE*        PTSUNNY   71  57  61 W8        30.24S
INDIANAPOLIS   PTSUNNY   74  54  49 SW14      30.23S

$$
MIZ043>046-050>051-056>058-064>065-071>073-077>080-051600-
SOUTHWEST LOWER MICHIGAN

CITY           SKY/WX    TMP DP  RH WIND       PRES   REMARKS
BATTLE CREEK   LGT RAIN  50  47  89 E16       30.26F
BENTON HARBOR  CLOUDY    54  52  93 E12       30.22S
COLDWATER*     CLOUDY    53  49  89 E10       30.26R
HILLSDALE*     LGT RAIN  50  47  88 E13       30.26F
HOLLAND        LGT RAIN  52  48  86 E14G25    30.25F
GRAND RAPIDS   LGT RAIN  51  47  86 E15       30.28F
KALAMAZOO      LGT RAIN  51  47  86 NE8       30.27F
STURGIS*       CLOUDY    57  55  94 E9        30.24R
THREE RIVERS*  LGT RAIN  54  52  94 NE10      30.25S

$$
OHZ001>008-015>018-024>025-051600-
NORTHWEST OHIO

CITY           SKY/WX    TMP DP  RH WIND       PRES   REMARKS
DEFIANCE       LGT RAIN  58  56  93 E8        30.27S FOG
FINDLAY        CLOUDY    65  61  87 CALM      30.26R FOG
TOLEDO EXPRESS LGT RAIN  54  47  77 NE6       30.28R
TOLEDO METCALF LGT RAIN  54  46  74 NE6       30.28S
LIMA           LGT RAIN  66  62  87 CALM      30.26S

$$
AND FOR LAKE MICHIGAN COASTAL AND OPEN LAKE BUOY OBSERVATIONS

STATION/POSITION TEMP    WIND        PRES    VSBY  WAVE
                 AIR SEA DIR/SP/G                  HT/PER
                 (F)     (DEG/KT/KT) (MB)    (MI)  (FT/S)
CALUMET HARBOR    47      40/  1/  5   N/A
MICHIGAN CITY     51      30/ 11/ 13   N/A
BURNS HARBOR      51      60/  6/  7 1024.0R
SAINT JOSEPH      55      50/  2/  8 1023.0F
4 MI NW BRIDGMAN  53 49  130/  8/ 12   N/A           1/ 3
MICHIGAN CITY     49 49   50/  6/ 10   N/A           2/ 3

$$
&&



USA.gov is the U.S. government's official web portal to all federal, state and local government web resources and services.